Wind_Speed
22 26 31 41 42 46 54 59 56 57 56 57 53 48 43 38 42 37 27 22 25 21 19 22 22 21 18 22 23 20 16 15 15 8 9 12 13 11 9 9 8 7 7 8 7 13 15 17 19
16 27 33 38 40 42 50 57 60 59 56 56 55 51 46 40 34 35 36 30 24 21 19 19 16 15 16 14 19 21 20 17 15 16 16 8 7 8 2 3 7 5 4 9 12 12 21 22 21
13 23 29 33 37 38 44 53 57 60 58 55 56 53 44 42 39 32 28 28 27 24 20 13 13 13 11 9 11 16 18 18 14 8 3 8 9 5 8 8 5 4 13 10 13 19 22 19 23
9 19 25 28 29 33 41 47 50 54 59 57 56 54 46 42 39 36 32 27 22 22 19 15 13 11 9 7 8 10 12 11 9 8 9 13 17 8 7 5 11 13 13 15 17 14 20 22 21
12 15 26 23 24 24 36 42 47 49 56 59 54 52 49 42 41 38 32 28 25 23 20 17 14 11 8 7 7 9 9 11 12 9 8 8 8 4 8 8 9 4 12 15 14 21 23 22 23
6 10 28 22 21 23 31 37 43 45 50 54 56 52 48 44 46 38 33 31 27 25 21 17 15 12 8 6 8 9 10 9 7 6 8 12 12 11 7 7 9 11 14 18 20 19 18 18 18
9 9 20 20 16 21 29 34 37 40 45 50 53 51 48 44 41 40 40 34 29 27 23 18 16 13 9 8 6 6 8 7 7 8 8 9 12 12 9 5 10 14 14 17 18 21 21 20 18
7 9 11 15 17 19 26 32 34 35 37 44 50 51 45 43 43 41 32 35 34 30 24 22 20 18 14 8 6 7 8 7 9 9 7 10 8 3 6 9 12 11 11 15 17 18 18 19 21
9 6 7 10 11 13 23 26 29 31 35 37 43 48 48 43 43 42 39 36 34 34 28 22 19 18 18 14 7 4 7 7 9 9 8 10 9 10 9 12 12 10 11 13 16 17 20 19 17
4 5 3 2 10 20 20 21 25 27 32 32 36 43 44 46 42 40 39 38 36 36 35 26 21 18 19 19 15 1 6 10 11 9 8 6 5 3 5 5 4 8 11 14 18 20 20 18 16
7 6 1 2 9 13 11 17 22 24 27 29 33 39 41 41 46 38 38 37 36 35 35 34 27 20 21 23 22 11 6 11 12 10 7 5 1 3 4 7 8 10 14 17 21 23 25 28 24
8 5 4 3 3 14 11 20 19 21 22 25 31 35 36 38 41 45 37 36 34 35 35 32 33 27 22 22 23 19 11 10 10 8 6 3 4 5 5 6 11 16 17 22 20 19 24 37 38
15 11 4 8 6 10 10 17 17 19 19 24 25 30 32 35 36 40 41 38 35 34 34 32 31 32 26 22 20 22 19 16 15 12 9 8 8 9 13 16 17 18 21 20 21 22 23 30 36
22 18 14 7 6 6 9 15 15 16 19 22 23 26 27 29 31 35 37 39 39 34 30 31 31 30 30 25 20 21 20 19 19 16 14 15 15 15 16 19 19 22 20 22 24 28 30 33 35
29 28 23 7 7 1 6 9 15 14 15 18 21 26 24 27 29 31 33 35 37 37 30 27 30 30 28 28 21 20 20 16 18 15 16 15 17 17 19 19 21 21 20 23 24 26 27 30 33
33 33 25 17 12 10 9 10 14 15 16 12 19 20 22 26 25 24 28 31 34 34 32 27 25 30 28 25 22 20 17 15 16 17 17 18 19 18 18 20 20 22 22 25 26 28 30 31 32
36 39 36 31 29 23 18 14 17 17 13 10 14 14 16 22 23 23 21 27 29 30 30 29 24 24 26 24 21 22 19 16 15 15 17 19 20 17 18 20 22 21 22 24 23 25 27 28 28
46 44 45 40 34 29 23 23 21 14 12 12 10 11 17 21 22 20 22 27 29 28 27 25 23 20 22 22 22 20 18 19 17 14 13 17 19 16 17 19 19 20 20 21 22 23 23 25 25
53 52 50 47 44 37 31 30 22 14 12 14 14 17 20 20 22 22 24 29 31 29 23 22 21 17 17 18 22 21 20 17 16 15 13 15 18 16 15 16 17 17 18 18 18 20 20 21 22
57 59 58 53 50 46 41 37 36 30 29 30 30 26 25 24 21 25 32 34 32 28 22 20 17 16 13 15 17 20 17 16 14 14 13 14 14 14 13 13 14 15 14 14 14 16 18 17 18
64 61 61 60 58 56 50 45 43 41 39 37 34 34 34 33 33 29 32 35 30 28 24 18 18 14 11 10 12 14 15 14 13 11 11 11 12 11 11 11 12 12 10 10 11 13 15 16 16
72 68 67 66 64 61 55 54 52 48 46 44 42 39 38 37 35 34 34 33 29 27 27 18 16 14 12 6 6 7 9 11 11 9 9 10 9 7 8 10 9 8 7 8 10 13 16 18 20
79 76 74 73 72 69 65 60 59 53 52 51 49 46 46 42 39 38 37 35 31 27 25 17 16 14 13 9 6 4 3 4 6 8 7 7 8 6 6 7 8 7 8 9 11 14 15 16 17
84 85 83 82 78 72 73 66 66 62 61 57 55 56 53 47 47 43 40 38 32 27 24 18 15 16 15 12 9 8 4 3 1 1 2 5 5 6 6 7 8 9 10 11 10 10 10 12 14
86 86 88 87 84 79 78 71 69 71 70 65 61 59 58 55 54 50 45 38 33 29 24 23 17 17 18 17 13 12 12 9 8 6 4 2 1 1 3 5 7 8 9 9 10 10 9 9 10
88 87 92 91 87 83 83 77 74 77 77 76 70 66 64 62 58 55 46 39 33 29 27 26 24 21 20 20 18 16 16 15 14 11 11 8 6 4 4 4 5 6 9 9 9 10 13 13 9
85 83 86 89 89 87 84 81 79 80 82 82 76 71 67 63 58 55 48 43 40 33 30 30 30 28 25 24 24 20 19 21 22 20 18 15 14 11 10 9 8 8 7 9 10 11 9 2 4
82 83 82 83 83 83 82 82 82 88 86 81 79 75 71 68 64 59 55 51 47 43 38 33 35 33 30 29 30 26 22 23 24 22 23 20 20 20 18 16 15 10 10 11 11 10 9 10 9
83 84 85 87 84 82 79 74 79 85 88 85 83 82 75 72 70 67 63 58 54 50 45 39 37 38 36 36 33 31 28 24 25 24 23 24 21 18 20 19 17 15 15 14 14 13 10 9 7
87 86 86 87 87 84 80 73 77 78 83 83 81 82 82 78 74 70 68 64 61 58 51 46 43 40 39 38 38 36 33 30 29 28 26 26 28 27 21 22 20 20 19 19 17 20 19 14 13
Wind_Direction
49 58 51 45 47 44 45 46 45 48 46 46 45 51 59 61 75 89 101 115 133 134 139 142 154 171 179 191 206 208 200 209 205 226 275 281 271 282 291 315 328 311 318 331 327 338 343 326 325
56 54 52 46 50 45 47 46 43 43 49 49 47 47 57 68 68 80 91 101 119 127 131 142 147 169 188 205 205 213 212 222 239 265 281 276 243 244 213 88 60 49 310 305 345 331 322 327 322
65 62 38 46 51 47 45 47 43 41 43 51 49 47 53 62 71 79 83 96 105 112 123 126 121 132 129 145 184 209 217 230 250 241 198 154 119 144 155 130 102 342 2 336 298 319 310 325 330
16 42 27 49 47 42 45 41 41 42 41 46 51 48 52 58 66 69 76 86 93 102 108 114 117 115 114 137 169 184 196 200 197 175 160 156 150 163 209 302 339 341 283 264 287 323 338 332 337
53 11 19 43 47 36 44 36 34 42 44 41 50 52 50 57 64 66 71 74 80 75 75 80 85 98 109 132 138 139 153 171 180 180 176 177 196 154 125 198 211 263 337 353 343 345 343 339 339
27 12 22 14 51 49 50 31 34 39 42 44 42 52 51 55 63 61 63 68 74 79 79 74 67 72 78 113 126 142 150 159 155 157 146 165 163 136 170 226 248 301 317 327 352 348 342 342 341
38 4 5 3 36 65 47 31 40 35 43 43 42 47 52 53 61 62 60 62 68 68 71 72 73 74 85 93 117 132 140 144 152 161 166 181 192 214 272 323 264 289 305 323 337 348 345 347 345
15 355 12 10 85 69 45 39 32 27 32 37 45 43 50 54 55 58 55 58 61 63 67 67 66 62 75 86 124 140 151 156 175 185 177 183 212 257 275 278 313 321 332 342 347 349 351 351 347
46 31 29 24 99 35 20 35 36 23 19 30 41 45 42 47 56 55 54 54 51 58 61 65 71 62 59 63 67 164 200 190 180 172 176 194 224 250 289 305 313 344 346 355 360 6 2 360 3
120 93 3 25 342 341 8 33 29 23 13 27 38 42 41 42 48 54 53 51 49 47 47 57 66 67 59 51 41 102 171 178 178 171 171 184 219 262 280 327 29 22 15 18 22 26 27 24 25
228 262 161 345 333 316 340 14 29 27 18 31 33 40 43 39 41 48 50 50 49 49 46 46 51 61 56 46 35 55 144 171 178 167 159 143 96 73 52 55 35 24 49 42 54 53 54 48 54
176 195 204 328 334 309 323 12 30 28 22 21 26 37 42 39 37 38 44 46 48 48 48 44 45 46 55 54 45 54 90 133 151 158 164 136 102 80 40 54 73 63 60 64 64 63 56 56 62
163 171 121 33 317 306 344 352 31 17 20 10 20 28 32 40 33 31 31 38 42 46 46 46 45 46 46 52 56 60 73 98 109 115 117 101 85 76 91 90 81 76 76 76 77 72 64 63 63
187 191 204 329 214 275 333 11 6 8 7 359 4 13 26 25 28 27 25 26 32 40 43 44 48 46 44 45 54 68 74 84 92 93 95 93 90 93 93 91 90 92 91 88 83 77 71 68 65
200 215 240 238 191 181 53 349 340 341 355 351 356 1 9 11 15 19 26 18 19 25 35 41 41 43 46 45 45 55 77 84 91 97 97 96 96 99 100 99 101 102 96 90 81 78 74 73 72
211 225 240 236 196 185 280 347 314 319 321 329 340 358 4 6 4 10 14 21 15 17 21 35 40 38 44 46 48 48 56 75 82 93 95 98 100 105 105 105 102 101 89 85 82 79 74 68 65
227 225 238 240 246 257 228 270 295 303 308 304 328 353 352 349 350 358 5 6 10 10 14 21 32 36 38 43 47 52 46 51 70 80 94 100 101 110 104 103 104 102 97 92 84 80 77 71 66
239 230 236 242 240 250 251 261 272 283 295 297 326 328 325 341 344 343 349 352 358 4 8 10 23 32 36 39 40 48 51 47 52 71 83 96 106 112 106 108 108 109 98 94 89 82 76 71 67
236 242 235 239 244 244 245 250 248 257 273 286 289 301 309 321 329 329 333 339 344 358 359 2 11 24 28 34 37 35 44 44 51 56 67 79 93 100 105 105 109 104 102 99 90 84 77 70 64
232 239 243 240 242 244 247 249 254 255 259 269 276 284 289 300 306 311 314 321 332 348 347 349 356 13 21 25 33 36 35 47 49 62 68 76 86 97 102 106 108 108 104 95 85 79 77 71 63
237 236 241 244 247 244 246 250 252 256 260 265 267 274 279 287 291 296 301 310 321 335 338 338 341 354 13 18 32 38 31 34 51 58 65 74 85 89 96 98 110 114 107 88 73 67 66 62 55
243 242 241 244 247 249 247 250 251 254 258 262 264 266 272 277 282 289 295 302 310 323 325 325 320 331 350 358 7 35 41 34 36 50 56 63 76 82 92 103 102 102 85 64 52 51 47 46 44
244 244 244 244 245 248 250 251 253 253 255 257 261 261 265 270 274 280 289 294 300 308 312 309 307 312 324 330 299 334 359 56 45 41 46 54 54 56 57 65 70 61 53 44 40 38 41 46 41
243 243 244 245 247 248 249 250 254 254 253 253 256 262 265 270 275 277 280 283 288 291 297 294 293 296 300 308 295 265 266 255 130 47 60 59 50 43 25 18 28 37 29 28 23 20 31 23 27
245 246 245 244 246 246 248 248 253 253 253 253 253 255 261 265 270 271 273 272 276 278 280 287 281 280 286 287 289 273 253 254 252 236 238 242 160 54 339 353 344 354 351 1 357 354 353 360 3
248 245 247 246 245 245 247 248 246 251 251 252 251 252 256 259 263 265 266 265 263 267 268 274 276 270 273 276 276 273 255 241 240 249 255 252 253 269 256 263 286 314 322 341 337 344 339 344 355
251 250 249 250 248 246 246 244 247 248 247 250 252 252 254 257 258 258 259 259 260 257 262 268 269 269 267 269 267 270 269 251 244 244 249 251 257 269 261 258 261 265 278 290 304 305 307 310 341
254 253 251 251 250 249 245 244 245 250 247 247 251 251 251 251 253 254 255 255 256 257 255 262 267 266 265 264 266 265 265 266 258 254 252 254 261 268 260 256 259 265 259 261 271 293 272 278 282
252 253 253 252 250 249 248 245 244 246 248 246 246 248 248 250 251 252 253 255 257 256 258 257 262 266 265 264 264 264 262 262 260 256 248 250 245 253 255 262 259 257 253 242 256 268 256 275 285
252 251 253 254 253 251 247 246 246 245 248 249 246 246 246 246 247 249 252 252 252 254 253 255 257 260 264 264 263 262 259 256 256 259 260 249 251 249 257 253 253 250 252 244 250 254 261 268 269
Height
11004 11000 10997 10992 10990 10985 10979 10973 10968 10960 10952 10945 10939 10935 10929 10928 10925 10924 10928 10931 10935 10938 10943 10947 10952 10957 10960 10963 10965 10967 10969 10970 10972 10973 10975 10976 10975 10973 10974 10975 10974 10975 10976 10977 10976 10975 10974 10975 10974
11007 11004 11000 10997 10994 10991 10986 10980 10976 10968 10960 10953 10947 10943 10940 10938 10935 10934 10934 10936 10939 10942 10947 10951 10955 10959 10962 10964 10966 10968 10970 10972 10973 10974 10975 10975 10975 10976 10976 10975 10975 10976 10977 10977 10975 10976 10976 10975 10975
11009 11007 11005 11002 11000 10997 10993 10986 10981 10977 10971 10962 10955 10951 10949 10945 10944 10943 10943 10944 10944 10946 10949 10952 10955 10959 10961 10963 10965 10968 10970 10971 10972 10973 10975 10975 10975 10975 10975 10976 10976 10978 10976 10978 10978 10977 10976 10975 10972
11012 11009 11008 11006 11004 11002 10998 10994 10990 10986 10978 10969 10961 10960 10959 10955 10951 10948 10952 10952 10952 10951 10953 10956 10958 10960 10961 10963 10964 10966 10969 10970 10971 10974 10975 10975 10976 10974 10975 10975 10975 10978 10979 10978 10978 10977 10974 10972 10970
11015 11013 11012 11010 11008 11006 11003 10999 10995 10990 10984 10978 10971 10969 10968 10964 10956 10956 10958 10957 10957 10956 10958 10960 10961 10962 10963 10963 10965 10967 10968 10970 10971 10973 10975 10977 10977 10977 10977 10980 10980 10979 10978 10977 10975 10973 10971 10970 10968
11017 11016 11015 11014 11010 11008 11005 11003 10998 10995 10990 10986 10982 10976 10975 10972 10964 10965 10965 10964 10963 10961 10962 10964 10964 10965 10965 10965 10967 10968 10969 10970 10971 10973 10975 10977 10979 10980 10979 10979 10979 10979 10979 10977 10975 10973 10972 10970 10967
11019 11019 11017 11016 11014 11011 11007 11007 11004 11002 10997 10994 10989 10983 10981 10979 10974 10973 10973 10970 10968 10967 10966 10966 10967 10967 10968 10968 10968 10969 10970 10970 10972 10974 10976 10978 10979 10978 10978 10979 10980 10979 10978 10977 10975 10973 10971 10968 10965
11020 11020 11019 11017 11016 11014 11010 11008 11010 11007 11002 10999 10995 10991 10989 10987 10982 10980 10980 10978 10975 10973 10972 10972 10971 10970 10970 10970 10969 10969 10970 10971 10973 10975 10977 10978 10979 10979 10979 10980 10980 10978 10978 10977 10976 10974 10970 10967 10963
11020 11020 11020 11019 11017 11017 11014 11013 11013 11011 11007 11004 11000 10997 10996 10993 10988 10986 10985 10983 10982 10979 10978 10976 10974 10974 10973 10971 10971 10970 10969 10971 10973 10975 10977 10979 10979 10980 10981 10982 10981 10979 10978 10978 10976 10974 10970 10966 10962
11019 11022 11019 11020 11021 11021 11018 11017 11016 11015 11012 11008 11005 11002 11001 11000 10996 10992 10991 10989 10986 10984 10983 10980 10978 10976 10974 10973 10971 10969 10969 10971 10973 10975 10977 10978 10979 10980 10980 10980 10980 10979 10978 10978 10977 10974 10971 10967 10962
11020 11022 11021 11023 11023 11022 11022 11020 11019 11017 11016 11013 11009 11007 11006 11005 11002 11000 10997 10995 10993 10989 10987 10985 10981 10978 10976 10973 10971 10968 10969 10971 10973 10975 10976 10978 10979 10980 10979 10980 10980 10981 10980 10979 10978 10977 10976 10970 10964
11022 11021 11022 11022 11025 11025 11023 11022 11021 11020 11019 11016 11014 11012 11011 11010 11008 11006 11004 11003 10999 10995 10991 10989 10986 10983 10980 10977 10975 10972 10971 10972 10974 10976 10978 10979 10980 10981 10981 10981 10981 10982 10983 10981 10981 10982 10981 10975 10969
11021 11022 11023 11024 11024 11024 11023 11023 11022 11023 11021 11020 11017 11017 11015 11015 11013 11010 11009 11008 11005 11000 10997 10995 10991 10989 10986 10983 10981 10979 10977 10977 10977 10979 10980 10981 10983 10983 10984 10984 10984 10985 10985 10987 10987 10986 10984 10980 10975
11020 11021 11020 11023 11024 11024 11023 11023 11024 11023 11022 11022 11018 11019 11018 11017 11017 11016 11014 11012 11010 11007 11004 11001 10997 10994 10991 10989 10987 10984 10984 10983 10982 10983 10983 10983 10984 10987 10988 10988 10988 10989 10991 10992 10991 10989 10986 10984 10980
11016 11017 11019 11022 11023 11024 11023 11023 11024 11023 11023 11024 11021 11019 11020 11020 11020 11018 11018 11016 11013 11011 11010 11005 11002 10999 10996 10995 10993 10990 10989 10989 10987 10987 10987 10987 10987 10990 10991 10992 10993 10994 10995 10996 10995 10993 10992 10988 10986
11013 11013 11016 11019 11022 11022 11023 11024 11023 11023 11024 11025 11024 11021 11021 11022 11022 11021 11022 11021 11018 11016 11013 11010 11006 11003 11002 11000 10999 10996 10995 10994 10993 10991 10991 10991 10991 10994 10996 10997 10998 10999 11001 11000 11000 10998 10996 10995 10993
11008 11009 11012 11014 11017 11019 11021 11022 11021 11023 11024 11024 11025 11024 11023 11023 11023 11023 11023 11024 11022 11019 11015 11013 11011 11007 11006 11005 11003 11000 11000 10999 10998 10996 10995 10995 10996 10998 11000 11000 11000 11002 11003 11003 11003 11002 11000 10999 10997
10999 11002 11004 11008 11014 11016 11018 11020 11020 11021 11022 11023 11022 11024 11024 11024 11025 11025 11024 11023 11023 11020 11018 11016 11014 11012 11010 11009 11007 11005 11004 11004 11002 11001 11001 11000 10999 11002 11003 11003 11004 11005 11005 11006 11006 11005 11004 11002 11002
10990 10992 10998 11003 11005 11009 11014 11015 11016 11017 11020 11020 11022 11023 11023 11023 11025 11025 11024 11024 11024 11022 11020 11018 11016 11015 11013 11011 11009 11008 11007 11007 11007 11006 11006 11005 11003 11005 11006 11007 11007 11007 11007 11008 11008 11007 11007 11007 11006
10982 10983 10989 10995 10997 11001 11006 11010 11011 11013 11015 11018 11018 11020 11021 11021 11022 11024 11024 11023 11024 11024 11021 11020 11017 11016 11015 11013 11012 11011 11011 11010 11010 11009 11009 11009 11008 11008 11009 11010 11010 11011 11011 11011 11012 11012 11010 11009 11009
10971 10977 10979 10983 10985 10991 11000 11001 11005 11007 11009 11012 11014 11015 11018 11019 11018 11022 11023 11022 11023 11022 11021 11018 11017 11016 11015 11014 11014 11013 11013 11013 11012 11012 11012 11012 11011 11012 11012 11012 11012 11013 11014 11014 11015 11014 11013 11012 11013
10956 10964 10968 10970 10974 10980 10989 10991 10994 11000 11004 11004 11007 11010 11011 11013 11016 11017 11020 11021 11021 11020 11020 11018 11017 11015 11015 11015 11016 11014 11014 11014 11014 11014 11014 11014 11014 11014 11014 11013 11014 11015 11016 11017 11017 11016 11016 11015 11016
10943 10949 10953 10957 10962 10970 10976 10983 10985 10993 10994 10996 10997 11000 11003 11008 11011 11014 11015 11017 11019 11018 11018 11017 11016 11015 11014 11014 11015 11015 11015 11015 11016 11016 11015 11015 11016 11016 11017 11016 11016 11018 11018 11018 11018 11018 11017 11016 11016
10928 10930 10938 10942 10951 10963 10962 10975 10976 10980 10981 10987 10991 10992 10997 11001 11004 11009 11011 11012 11015 11016 11016 11016 11015 11014 11013 11013 11014 11015 11015 11015 11015 11016 11016 11016 11016 11017 11017 11018 11018 11018 11018 11018 11019 11019 11018 11016 11015
10907 10911 10918 10928 10937 10949 10949 10965 10964 10966 10968 10975 10981 10984 10987 10992 10996 11001 11004 11007 11009 11010 11012 11013 11013 11013 11011 11011 11012 11012 11013 11013 11014 11014 11015 11015 11016 11016 11016 11017 11017 11017 11017 11017 11018 11018 11018 11016 11015
10884 10895 10896 10909 10920 10929 10937 10951 10955 10948 10953 10956 10967 10973 10978 10982 10986 10990 10996 10999 11002 11004 11006 11007 11008 11009 11010 11009 11009 11010 11010 11011 11012 11012 11013 11013 11013 11014 11014 11014 11015 11015 11015 11015 11016 11016 11015 11016 11015
10863 10874 10880 10886 10898 10910 10922 10932 10931 10927 10934 10938 10952 10964 10970 10971 10975 10979 10986 10990 10994 10997 10998 11001 11001 11003 11004 11005 11005 11005 11006 11006 11008 11009 11010 11010 11010 11011 11013 11013 11012 11012 11013 11013 11013 11013 11014 11013 11013
10844 10852 10860 10865 10874 10884 10900 10913 10917 10905 10914 10930 10937 10947 10954 10959 10963 10967 10972 10978 10983 10987 10991 10994 10994 10996 10997 10999 10999 11001 11000 11001 11001 11003 11005 11006 11006 11007 11008 11009 11010 11010 11010 11009 11010 11010 11010 11011 11011
10826 10830 10835 10839 10852 10864 10876 10892 10893 10889 10895 10909 10918 10923 10934 10943 10950 10954 10960 10967 10973 10977 10982 10986 10987 10988 10989 10991 10993 10993 10994 10995 10995 10995 10997 10998 11000 11001 11003 11004 11005 11005 11006 11006 11006 11006 11006 11007 11007
10802 10811 10814 10818 10826 10838 10853 10872 10867 10873 10878 10888 10902 10910 10917 10923 10930 10941 10947 10955 10958 10963 10969 10973 10976 10979 10981 10983 10984 10986 10987 10987 10988 10989 10990 10992 10993 10995 10996 10997 10999 11001 11001 11002 11002 11002 11003 11003 11003